NOAA NWS Hourly Roundups by Site

Regional Weather Roundup for Omaha, NE

To Select Another Site Choose from List

Select Site:  

000
ASUS43 KOAX 190710
RWRNE

WEATHER ROUNDUP FOR NEBRASKA
NATIONAL WEATHER SERVICE OMAHA NE
200 AM CDT WED JUN 19 2019

NOTES: SATELLITE DATA IS BEING USED TO AUGMENT CLOUD COVER ABOVE
       12000 FEET.
       "FAIR" INDICATES FEW OR NO CLOUDS BELOW 12,000 FEET WITH NO
       SIGNIFICANT WEATHER AND/OR OBSTRUCTIONS TO VISIBILITY.


NEZ001>004-019>022-054>056-190800-
NEBRASKA PANHANDLE

CITY           SKY/WX    TMP DP  RH WIND       PRES   REMARKS
SCOTTSBLUFF    FOG       52  52 100 CALM      29.94F VSB 1/4
ALLIANCE       CLOUDY    55  54  96 CALM      29.93
CHADRON        FAIR      55  53  93 W3        29.92S
GORDON         CLOUDY    58  57  96 CALM      29.93F
KIMBALL        FAIR      52  51  97 W6        29.98F
SIDNEY         FAIR      54  52  93 SW6       29.97F
$$

NEZ057>060-069>072-079>082-190800-
SOUTHWEST NEBRASKA

CITY           SKY/WX    TMP DP  RH WIND       PRES   REMARKS
NORTH PLATTE   CLOUDY    60  57  89 SE3       29.92F
IMPERIAL       CLOUDY    61  57  87 S7        29.92F
LEXINGTON      MOCLDY    56  56 100 CALM      29.90F
MCCOOK         CLOUDY    59  58  96 E5        29.89F
OGALLALA       RAIN      62  61  97 MISG      29.93F
$$

NEZ005>010-023>029-035>040-094-190800-
NORTH CENTRAL NEBRASKA

CITY           SKY/WX    TMP DP  RH WIND       PRES   REMARKS
VALENTINE      FAIR      60  53  77 CALM      29.91F
AINSWORTH      FAIR      56  55  96 SW5       29.92F
BROKEN BOW     FAIR      53  52  96 NW3       29.91F
O`NEILL        FAIR      56  55  97 CALM      29.90F
ORD            FAIR      52  50  93 CALM      29.89F
THEDFORD       FAIR      55  53  93 CALM      29.94S
$$

NEZ041-046>049-061>064-073>077-083>087-190800-
SOUTH CENTRAL NEBRASKA

CITY           SKY/WX    TMP DP  RH WIND       PRES   REMARKS
GRAND ISLAND   CLOUDY    60  57  89 NE7       29.88F
AURORA         CLOUDY    59  59 100 N5        29.88F
HASTINGS       CLOUDY    60  58  92 NE9       29.88F
HEBRON         CLOUDY    64  62  96 N3        29.87F FOG
HOLDREGE       CLOUDY    58  58 100 NE6       29.89F
KEARNEY        FOG       57  57 100 NE6       29.89F VSB 3/4
YORK           CLOUDY    59  59 100 NE6       29.88F FOG
$$

NEZ011>018-030>034-042>045-190800-
NORTHEAST NEBRASKA

CITY           SKY/WX    TMP DP  RH WIND       PRES   REMARKS
NORFOLK        FAIR      52  50  93 CALM      29.89F
ALBION         FAIR      52  51  99 CALM      29.90S FOG
BLAIR          CLOUDY    63  61  94 N6        29.86F FOG
COLUMBUS       FAIR      56  54  93 CALM      29.89F
FREMONT        CLOUDY    63  62  96 CALM      29.88F
TEKAMAH        CLOUDY    61  60  97 N6        29.87F
WAYNE          FAIR      51  50  95 CALM      29.89S
$$

NEZ050>053-065>068-078-088>093-190800-
SOUTHEAST NEBRASKA

CITY           SKY/WX    TMP DP  RH WIND       PRES   REMARKS
LINCOLN        CLOUDY    63  61  93 N8        29.85F FOG
OMAHA EPPLEY   CLOUDY    66  63  90 NE5       29.85F
BEATRICE       CLOUDY    65  65  97 NE7       29.83F FOG
FALLS CITY     CLOUDY    66  62  87 NE8       29.80F
NEBRASKA CITY  CLOUDY    64  64 100 NE5       29.84F FOG
PLATTSMOUTH    CLOUDY    65  65 100 NE7       29.85F
$$

NEZ044-045-051>053-067-190800-
OMAHA AREA

CITY           SKY/WX    TMP DP  RH WIND       PRES   REMARKS
OMAHA EPPLEY   CLOUDY    66  63  90 NE5       29.85F
BLAIR          CLOUDY    63  61  94 N6        29.86F FOG
FREMONT        CLOUDY    63  62  96 CALM      29.88F
MILLARD        CLOUDY    65  64  94 CALM      29.85F FOG
OFFUTT AFB     MOCLDY    66  63  88 NE5       29.83F
PLATTSMOUTH    CLOUDY    65  65 100 NE7       29.85F
WAHOO          PTSUNNY   62  62 100 N5        29.86F
$$


 

View Past Reports for Omaha, NE.

Products Courtesy of NOAA-NWS
NWS Information Parsing Script by Ken True at Saratoga Weather - Script by SE Lincoln Weather.